Regional Weather Roundup
Issued by NWS

Home | Current Version | Previous Version | Graphics & Text | Print | Product List | Glossary On
Versions: 1 2 3 4 5 6 7 8 9 10 11 12 13 14 15 16 17 18 19 20 21 22 23 24 25 26 27 28 29 30 31 32 33 34 35 36 37 38 39 40 41 42 43 44 45 46 47 48 49 50
000
ASUS45 KABQ 251701
RWRNM
WEATHER ROUNDUP FOR NEW MEXICO
NATIONAL WEATHER SERVICE ALBUQUERQUE NM
1000 AM MST SUN JAN 25 2015

NOTE: "FAIR" MEANS FEW OR NO CLOUDS BELOW 12,000 FEET AGL WITH NO
       SIGNIFICANT WEATHER OR OBSTRUCTIONS TO VISION.

      THIS PRODUCT IS RELEASED AS TWO VERSIONS.  ONE VERSION NEAR
      THE TOP OF THE HOUR CONTAINING PRELIMINARY DATA FROM ALBUQUERQUE
      AND OTHER STATIONS.  A FINAL VERSION WITH ADDITIONAL DATA IS
      ISSUED ABOUT 10 MINUTES AFTER THE HOUR.

NMZ501-503-504-510>518-251800-
NORTHWEST PLATEAU/NORTHCENTRAL MOUNTAINS

CITY           SKY/WX    TMP DP  RH WIND       PRES   REMARKS
FARMINGTON     SUNNY     30  19  63 SE6       30.36R WCI  24
SANTA FE       SUNNY     38  18  44 N10       30.30R WCI  31
TAOS           SUNNY     34  18  51 CALM      30.34S

$$
NMZ402-403-502-505>509-251800-
WESTCENTRAL MOUNTAINS/SOUTHWEST MOUNTAINS

CITY           SKY/WX    TMP DP  RH WIND       PRES   REMARKS
GALLUP         SUNNY     36  21  54 NE3       30.35R
SILVER CITY    PTSUNNY   48  14  25 CALM      30.29R

$$
NMZ407-409-411-412-251800-
SOUTHERN DESERTS

CITY           SKY/WX    TMP DP  RH WIND       PRES   REMARKS
DEMING         MOSUNNY   47  26  44 E13       30.28R
HOLLOMAN AFB   PTSUNNY   36  27  69 E1        30.29R
ALAMOGORDO     PTSUNNY   37  27  65 CALM      30.31R
T OR C         MOSUNNY   42  23  46 N8        30.31R

$$
NMZ519>523-251800-
CENTRAL VALLEYS/CENTRAL HIGHLANDS

CITY           SKY/WX    TMP DP  RH WIND       PRES   REMARKS
ALBUQUERQUE    MOSUNNY   39  20  46 NW6       30.33R WCI  35
DOUBLE EAGLE   SUNNY     39  19  45 CALM      30.32S
CLINES CORNERS SUNNY     33  19  56 NW13      30.26R WCI  24
BELEN          FAIR      39  26  59 NW3       30.34R
SOCORRO        NOT AVBL

$$
NMZ524>526-539-540-251800-
SOUTHCENTRAL MOUNTAINS

CITY           SKY/WX    TMP DP  RH WIND       PRES   REMARKS
RUIDOSO        NOT AVBL

$$
NMZ527>531-251800-
NORTHEAST HIGHLANDS/NORTHEAST PLAINS

CITY           SKY/WX    TMP DP  RH WIND       PRES   REMARKS
LAS VEGAS      MOSUNNY   40  19  43 S15       30.25S WCI  32
RATON          SUNNY     38  25  59 NE5       30.25R WCI  34
CLAYTON        SUNNY     43  28  55 NW14      30.22R

$$
NMZ532>537-251800-
EASTCENTRAL PLAINS

CITY           SKY/WX    TMP DP  RH WIND       PRES   REMARKS
TUCUMCARI      SUNNY     40  28  62 W8        30.26S WCI  34
CANNON AFB     SUNNY     39  28  63 W8        30.27R WCI  34
CLOVIS AIRPORT SUNNY     43  28  56 NW10      30.27R

$$
NMZ028-029-538-251800-
SOUTHEAST PLAINS

CITY           SKY/WX    TMP DP  RH WIND       PRES   REMARKS
ROSWELL        SUNNY     48  31  51 W5        30.33R
ARTESIA        MOSUNNY   48  32  53 NW7       30.34R
CARLSBAD       PTSUNNY   52  28  39 N8        30.32R
HOBBS          SUNNY     48  25  40 N14       30.29R


$$



USA.gov is the U.S. government's official web portal to all federal, state and local government web resources and services.